SILO ALERT LOG


Silo ID Alert Type Alert Message Silo Type Points Depth (mm) Strength Temperature (°C) Humidity (%) Height (mm) Volume (㎥) Weight (t) Flag Time
WJWJR01 Humidity 습도센서 측정값이 80% 초과 64 5180 2111 20.4 83 2460 278.219 175.89 0 2026-06-14 05:26:07.000
WJWJR01 Humidity 습도센서 측정값이 80% 초과 64 5210 2093 20.7 82.7 2429 274.827 173.745 0 2026-06-14 04:26:12.000
WJWJR01 Humidity 습도센서 측정값이 80% 초과 64 5190 2095 21.1 82.2 2449 277.088 175.175 0 2026-06-14 03:26:10.000
WJWJR01 Humidity 습도센서 측정값이 80% 초과 65 5170 2088 21.5 81.8 2469 279.35 176.605 0 2026-06-14 02:26:13.000
WJWJR01 Humidity 습도센서 측정값이 80% 초과 64 5170 2082 22.1 80.9 2469 279.35 176.605 0 2026-06-14 01:26:11.000
WJWJR01 Humidity 습도센서 측정값이 80% 초과 64 5190 2086 20.6 82.6 2449 277.088 175.175 0 2026-06-13 08:26:12.000
WJWJR01 Humidity 습도센서 측정값이 80% 초과 64 5180 2091 19.4 83.9 2460 278.219 175.89 0 2026-06-13 07:26:10.000
WJWJR01 Humidity 습도센서 측정값이 80% 초과 64 5180 2077 19 83.9 2460 278.219 175.89 0 2026-06-13 06:26:09.000
WJWJR01 Humidity 습도센서 측정값이 80% 초과 55 5180 2074 19.3 83.6 2460 278.219 175.89 0 2026-06-13 05:26:13.000
WJWJR01 Humidity 습도센서 측정값이 80% 초과 64 5180 2070 19.8 83.2 2460 278.219 175.89 0 2026-06-13 04:26:12.000
WJWJR01 Humidity 습도센서 측정값이 80% 초과 55 5170 2054 20.2 82.8 2469 279.35 176.605 0 2026-06-13 03:26:09.000
WJWJR01 Humidity 습도센서 측정값이 80% 초과 64 5180 2053 20.7 81.9 2460 278.219 175.89 0 2026-06-13 02:26:07.000
WJWJR01 Humidity 습도센서 측정값이 80% 초과 64 5170 2032 21.2 81 2469 279.35 176.605 0 2026-06-13 01:26:09.000
WJWJR01 Humidity 습도센서 측정값이 80% 초과 64 5160 1997 21.9 80.3 2479 280.481 177.32 0 2026-06-13 00:26:13.000
WJWJR01 Humidity 습도센서 측정값이 80% 초과 65 5290 1774 20 82.3 2349 265.779 168.025 0 2026-06-12 08:26:06.000
WJWJR01 Humidity 습도센서 측정값이 80% 초과 66 5380 1975 19.4 82.9 2260 255.6 161.59 0 2026-06-12 07:26:06.000
WJWJR01 Humidity 습도센서 측정값이 80% 초과 67 5380 1970 19.3 83 2260 255.6 161.59 0 2026-06-12 06:26:11.000
WJWJR01 Humidity 습도센서 측정값이 80% 초과 66 5380 1977 19.3 83.1 2260 255.6 161.59 0 2026-06-12 05:26:10.000
WJWJR01 Humidity 습도센서 측정값이 80% 초과 66 5370 1989 19.5 82.9 2269 256.731 162.305 0 2026-06-12 04:26:08.000
WJWJR01 Humidity 습도센서 측정값이 80% 초과 66 5380 1981 19.7 82.6 2260 255.6 161.59 0 2026-06-12 03:26:09.000

[첫 페이지] [45] [46] [47] [48] 49 [50] [51] [52] [53] [마지막 페이지]